User: anonymous   Login
Location: Theydon Bois
(51.6750°N, 0.1050°E)
Time: 16:00:19
(UTC+00:00)
Language:

SL-16 R/B - Orbit

View from above orbital plane
View from above orbital plane
View from above satellite
View from above satellite

Ground track
Ground track

The orbit data is extracted from the following two-line orbital elements,

1 31793U 07029B   17350.63446514 -.00000199  00000-0 -79124-4 0  9998
2 31793  70.9750   5.9278 0002800 261.5135 231.1449 14.14388350540513
Epoch (UTC): 16 December 2017 15:13:37
Eccentricity: 0.0002800
inclination: 70.9750°
perigee height: 842 km
apogee height: 846 km
right ascension of ascending node: 5.9278°
argument of perigee: 261.5135°
revolutions per day: 14.14388350
mean anomaly at epoch: 231.1449°
orbit number at epoch: 54051

The dashed part of the orbit path shows where the satellite is in the earth's shadow,  

DLR